Skip Page Navigation
NASA JPL Caltech
NASA Logo - Jet Propulsion Laboratory + View the NASA Portal
+ Center for Near-Earth Object Studies
JPL Home Earth Solar System Stars & Galaxies Technology
JPL Solar System Dynamics
BODIES ORBITS EPHEMERIDES TOOLS PHYSICAL DATA DISCOVERY FAQ SITE MAP
JPL Small-Body Database Browser
Search: [ help ]  
48201 (2001 KD3)
Classification: Main-belt Asteroid          SPK-ID: 2048201
Ephemeris | Orbit Diagram | Orbital Elements | Mission Design | Physical Parameters | Discovery Circumstances | Close-Approach Data ]

[ show orbit diagram ]
Orbital Elements at Epoch 2459000.5 (2020-May-31.0) TDB
Reference: JPL 20 (heliocentric ecliptic J2000)
 Element Value Uncertainty (1-sigma)   Units 
e .03819532644645789 3.6753e-08  
a 2.717632686438074 1.5422e-08 au
q 2.613831818818008 9.8631e-08 au
i 3.904482286528665 5.1342e-06 deg
node 210.1834486671974 5.9024e-05 deg
peri 252.5503199842443 9.0939e-05 deg
M 215.5180349810094 6.9662e-05 deg
tp 2459657.243377003130
(2022-Mar-18.74337700)
0.00031782 TDB
period 1636.381507477774
4.48
1.3929e-05
3.814e-08
d
yr
n .2199975973542281 1.8726e-09 deg/d
Q 2.821433554058141 1.6011e-08 au
  Orbit Determination Parameters
   # obs. used (total)      854  
   data-arc span      7989 days (21.87 yr)  
   first obs. used      1998-09-15  
   last obs. used      2020-07-30  
   planetary ephem.      DE431  
   SB-pert. ephem.      SB431-N16  
   condition code      0  
   norm. resid. RMS      .54898  
   source      ORB  
   producer      Otto Matic  
   solution date      2020-Aug-25 04:32:50  

Additional Information
 Earth MOID = 1.63402 au 
 Jupiter MOID = 2.23078 au 
 T_jup = 3.356 
[ show covariance matrix ]

Ephemeris | Orbit Diagram | Orbital Elements | Mission Design | Physical Parameters | Discovery Circumstances | Close-Approach Data ]

Physical Parameter Table
Parameter Symbol Value Units Sigma Reference Notes
absolute magnitude H 14.8   n/a MPO385124  
diameter diameter 3.363 km 1.135 urn:nasa:pds:neowise_diameters_albedos::2.0[mainbelt] (http://adsabs.harvard.edu/abs/2011ApJ...741...68M)  
geometric albedo albedo 0.226   0.141 urn:nasa:pds:neowise_diameters_albedos::2.0[mainbelt] (http://adsabs.harvard.edu/abs/2011ApJ...741...68M)  

48201 (2001 KD3)          Discovered 2001-May-17 by LINEAR at Socorro
Reference: 20020921/Numbers.arcLast Updated: 2004-04-19

[ hide close-approach data ]
Close-Approach Data   ...sorted by Date/Time (TDB)
Date/Time (TDB) Time Uncertainty
(days_HH:MM)
Body Nominal Distance (au) Minimum Distance (au) Maximum Distance (au) V-relative (km/s) V-infinity (km/s) JD (TDB) Time Uncertainty (minutes) Semi-major axis (km) Semi-minor axis (km) range-LOV angle (deg) N-sigma BP Orbit Ref. Reference Modified
2031-Jan-25 09:38 < 00:01 David 0.0491880377380696 0.0491847024590506 0.0491913732016646 6.01313806336294 6.01313801228629 2462891.901695129 0.541750183177283 225.320682622013 26.0949299557243 -42.80589075624 193026.689232416 T 20 CATAB v2.0f-lin.ifort 2020-Aug-25 04:32:58 2020-Aug-25 04:33

Alternate Designations
 2001 KD3 = 1998 SE107 = 2000 CM11 
Ephemeris | Orbit Diagram | Orbital Elements | Mission Design | Physical Parameters | Discovery Circumstances | Close-Approach Data ]
ABOUT SSD CREDITS/AWARDS PRIVACY/COPYRIGHT GLOSSARY LINKS
FirstGov 2020-Sep-21 02:08 UT
(server date/time)  
NASA Home Page
Site Manager:   Ryan S. Park
Webmaster  Alan B. Chamberlin